FW8055 Weather Reports


Display with metric or nautical units.
time (UTC)temp
F
wind
direction
speed
MPH
gust
MPH
rain 1hr
in
rain 24hr
in
rain mn
in
humidity
%
barometer
mb
20260507163051 54 294 0.0 3.0 0.00 0.00 0.00 86 1020.6
20260507161545 54 16 0.0 3.0 0.00 0.00 0.00 86 1020.5
20260507160049 54 16 0.0 3.0 0.00 0.00 0.00 87 1020.8
20260507154547 53 0 0.0 3.0 0.00 0.00 0.00 88 1020.9
20260507153053 53 31 0.0 2.0 0.00 0.00 0.00 88 1020.8
20260507151544 53 5 0.0 3.0 0.00 0.00 0.00 89 1020.8
20260507150043 53 0 0.0 2.0 0.00 0.00 0.00 90 1020.7
20260507144552 52 0 0.0 0.0 0.00 0.00 0.00 91 1020.8
20260507143045 52 0 0.0 2.0 0.00 0.00 0.00 90 1020.7
20260507141547 52 0 0.0 2.0 0.00 0.00 0.00 90 1020.7
20260507140101 52 0 0.0 0.0 0.00 0.00 0.00 90 1020.4
20260507134545 52 0 0.0 0.0 0.00 0.00 0.00 90 1020.4
20260507133043 52 0 0.0 0.0 0.00 0.00 0.00 90 1020.5
20260507131543 52 0 0.0 1.0 0.00 0.00 0.00 90 1020.4
20260507124558 52 0 0.0 0.0 0.00 0.00 0.00 90 1020.6
20260507123043 52 0 0.0 0.0 0.00 0.00 0.00 90 1020.6
20260507121545 52 0 0.0 0.0 0.00 0.00 0.00 90 1020.7
20260507120043 52 0 0.0 0.0 0.00 0.00 0.00 89 1020.8
20260507114604 52 0 0.0 0.0 0.00 0.00 0.00 89 1020.9
20260507113047 52 0 0.0 0.0 0.00 0.00 0.00 89 1021.0
20260507111545 52 0 0.0 0.0 0.00 0.00 0.00 88 1021.0
20260507110048 52 0 0.0 1.0 0.00 0.00 0.00 88 1021.0
20260507104552 52 29 0.0 1.0 0.00 0.00 0.00 87 1021.1
20260507103044 52 0 0.0 3.0 0.00 0.00 0.00 87 1021.2
20260507101542 52 0 0.0 0.0 0.00 0.00 0.00 85 1021.2
20260507100047 53 0 0.0 1.0 0.00 0.00 0.00 85 1021.3
20260507094544 53 0 0.0 1.0 0.00 0.00 0.00 84 1021.4
20260507093051 53 0 0.0 0.0 0.00 0.00 0.00 84 1021.5
20260507091552 53 0 0.0 2.0 0.00 0.00 0.00 84 1021.7
20260507090047 53 0 0.0 2.0 0.00 0.00 0.00 84 1021.7
20260507084547 53 28 0.0 2.0 0.00 0.00 0.00 84 1021.8
20260507083044 53 0 0.0 2.0 0.00 0.00 0.00 84 1021.9
20260507081543 53 0 0.0 2.0 0.00 0.00 0.00 84 1022.0
20260507080054 53 0 0.0 1.0 0.00 0.00 0.00 84 1022.0
20260507074604 53 0 0.0 2.0 0.00 0.00 0.00 85 1022.0
20260507073046 52 0 0.0 2.0 0.00 0.00 0.00 85 1022.1
20260507071550 52 0 0.0 0.0 0.00 0.00 0.00 87 1022.1
20260507070103 51 0 0.0 0.0 0.00 0.00 0.00 87 1022.1
20260507064549 51 0 0.0 0.0 0.00 0.00 0.00 86 1021.9
20260507063055 52 0 0.0 0.0 0.00 0.00 0.00 85 1022.0
20260507061548 52 0 0.0 0.0 0.00 0.00 0.00 85 1022.1
20260507060047 52 0 0.0 0.0 0.00 0.00 0.00 84 1022.0
20260507054554 53 0 0.0 1.0 0.00 0.00 0.00 83 1021.9
20260507053047 53 0 0.0 1.0 0.00 0.00 0.00 82 1021.9
20260507051551 54 0 0.0 2.0 0.00 0.00 0.00 81 1021.9
20260507050047 54 0 0.0 1.0 0.00 0.00 0.00 80 1021.8
20260507044546 55 0 0.0 1.0 0.00 0.00 0.00 79 1021.8
20260507043050 56 0 0.0 1.0 0.00 0.00 0.00 79 1021.6
20260507041546 56 0 0.0 2.0 0.00 0.00 0.00 77 1021.5
20260507040044 57 38 1.0 3.0 0.00 0.00 0.00 76 1021.3
20260507034546 58 0 0.0 2.0 0.00 0.00 0.00 74 1021.2
20260507033044 59 0 0.0 4.0 0.00 0.00 0.00 73 1021.0
20260507031546 60 0 0.0 3.0 0.00 0.00 0.00 71 1020.8
20260507030044 61 0 0.0 3.0 0.00 0.00 0.00 70 1020.6
20260507024548 62 46 0.0 5.0 0.00 0.00 0.00 69 1020.6
20260507023041 64 333 1.0 5.0 0.00 0.00 0.00 67 1020.4
20260507021543 65 26 2.0 4.0 0.00 0.00 0.00 66 1020.3
20260507020051 66 0 1.0 4.0 0.00 0.00 0.00 65 1020.3
20260507014551 67 10 0.0 3.0 0.00 0.00 0.00 65 1020.3
20260507013051 68 46 1.0 5.0 0.00 0.00 0.00 63 1020.2
20260507011544 68 0 1.0 6.0 0.00 0.00 0.00 62 1020.1
20260507010054 69 28 1.0 4.0 0.00 0.00 0.00 61 1020.2
20260507004546 70 0 1.0 7.0 0.00 0.00 0.00 61 1020.0
20260507003043 70 15 2.0 6.0 0.00 0.00 0.00 61 1020.0
20260507001547 70 29 2.0 6.0 0.00 0.00 0.00 61 1020.0
20260507000051 71 21 1.0 6.0 0.00 0.00 0.00 60 1020.0
20260506234545 71 19 2.0 6.0 0.00 0.00 0.00 60 1020.0
20260506233101 71 238 2.0 7.0 0.00 0.00 0.00 60 1019.8
20260506231550 71 75 1.0 8.0 0.00 0.00 0.00 59 1019.9
20260506230048 71 355 0.0 5.0 0.00 0.00 0.00 58 1020.0
20260506224542 71 13 0.0 4.0 0.00 0.00 0.00 60 1020.2
20260506223044 71 0 1.0 6.0 0.00 0.00 0.00 60 1020.3
20260506221556 70 14 3.0 10.0 0.00 0.00 0.00 60 1020.4
20260506220049 70 107 2.0 5.0 0.00 0.00 0.00 62 1020.5
20260506214546 70 98 1.0 5.0 0.00 0.00 0.00 62 1020.8
20260506213050 69 302 1.0 6.0 0.00 0.00 0.00 66 1020.9
20260506211544 69 163 2.0 5.0 0.00 0.00 0.00 69 1021.0
20260506210044 67 35 1.0 5.0 0.00 0.00 0.00 70 1021.0
20260506204546 66 0 2.0 8.0 0.00 0.00 0.00 70 1021.1
20260506203045 66 32 1.0 6.0 0.00 0.00 0.00 71 1021.3
20260506201553 65 22 2.0 8.0 0.00 0.00 0.00 72 1021.3
20260506200051 65 10 2.0 6.0 0.00 0.00 0.00 73 1021.4
20260506194553 64 61 1.0 4.0 0.00 0.00 0.00 73 1021.4
20260506193046 63 355 1.0 5.0 0.00 0.00 0.00 76 1021.6
20260506191550 63 0 1.0 3.0 0.00 0.00 0.00 76 1021.6
20260506190046 61 13 0.0 6.0 0.00 0.00 0.00 78 1021.6
20260506184544 61 10 0.0 4.0 0.00 0.00 0.00 77 1021.8
20260506183050 61 0 0.0 3.0 0.00 0.00 0.00 78 1021.6
20260506181542 60 350 0.0 3.0 0.00 0.00 0.00 80 1021.6
20260506180045 59 57 1.0 3.0 0.00 0.00 0.00 80 1021.7
20260506174541 59 92 0.0 3.0 0.00 0.00 0.00 82 1021.5
20260506173056 59 0 0.0 4.0 0.00 0.00 0.00 83 1021.6
20260506171549 58 0 0.0 3.0 0.00 0.00 0.00 83 1021.6
20260506170044 56 255 0.0 2.0 0.00 0.00 0.00 85 1021.5
20260506164605 56 0 0.0 0.0 0.00 0.00 0.00 86 1021.7